| time (UTC) | temp F | wind direction | speed MPH | gust MPH | rain 1hr in | rain 24hr in | rain mn in | humidity % | barometer mb |
| 20260831034544 | 67 | 10 | 0.0 | 2.0 | 0.00 | 0.00 | 0.00 | 100 | 1019.5 |
| 20260831033042 | 67 | 63 | 0.0 | 4.0 | 0.00 | 0.00 | 0.00 | 100 | 1019.5 |
| 20260831031540 | 67 | 144 | 1.0 | 4.0 | 0.00 | 0.00 | 0.00 | 100 | 1019.1 |
| 20260831030029 | 67 | 192 | 0.0 | 4.0 | 0.00 | 0.00 | 0.00 | 100 | 1019.0 |
| 20260831024557 | 67 | 235 | 1.0 | 2.0 | 0.00 | 0.00 | 0.00 | 100 | 1018.9 |
| 20260831023020 | 67 | 235 | 1.0 | 3.0 | 0.00 | 0.00 | 0.00 | 100 | 1019.0 |
| 20260831021516 | 67 | 235 | 0.0 | 0.0 | 0.00 | 0.00 | 0.00 | 100 | 1019.3 |
| 20260831020011 | 68 | 235 | 0.0 | 0.0 | 0.00 | 0.00 | 0.00 | 100 | 1019.4 |
| 20260831014508 | 68 | 235 | 0.0 | 0.0 | 0.00 | 0.00 | 0.00 | 100 | 1019.3 |
| 20260831013003 | 68 | 235 | 0.0 | 0.0 | 0.00 | 0.00 | 0.00 | 100 | 1019.5 |
| 20260831011559 | 68 | 235 | 0.0 | 0.0 | 0.00 | 0.00 | 0.00 | 100 | 1019.6 |
| 20260831010109 | 69 | 235 | 0.0 | 0.0 | 0.00 | 0.00 | 0.00 | 100 | 1019.8 |
| 20260831004549 | 69 | 235 | 0.0 | 0.0 | 0.00 | 0.00 | 0.00 | 100 | 1019.8 |
| 20260831003059 | 69 | 235 | 0.0 | 0.0 | 0.00 | 0.00 | 0.00 | 100 | 1019.5 |
| 20260831001541 | 69 | 235 | 0.0 | 0.0 | 0.00 | 0.00 | 0.00 | 100 | 1019.4 |
| 20260831000036 | 69 | 235 | 0.0 | 0.0 | 0.00 | 0.00 | 0.00 | 100 | 1018.8 |
| 20260830234534 | 69 | 235 | 0.0 | 0.0 | 0.00 | 0.00 | 0.00 | 100 | 1018.7 |
| 20260830233028 | 69 | 235 | 0.0 | 0.0 | 0.00 | 0.00 | 0.00 | 100 | 1018.4 |
| 20260830231522 | 70 | 238 | 0.0 | 0.0 | 0.00 | 0.00 | 0.00 | 100 | 1018.3 |
| 20260830230019 | 70 | 238 | 0.0 | 0.0 | 0.00 | 0.00 | 0.00 | 100 | 1018.1 |
| 20260830224517 | 70 | 238 | 0.0 | 0.0 | 0.00 | 0.00 | 0.00 | 100 | 1018.0 |
| 20260830223010 | 70 | 238 | 0.0 | 0.0 | 0.00 | 0.00 | 0.00 | 100 | 1017.9 |
| 20260830221513 | 70 | 238 | 0.0 | 0.0 | 0.00 | 0.00 | 0.00 | 100 | 1017.8 |
| 20260830220101 | 70 | 238 | 0.0 | 2.0 | 0.00 | 0.00 | 0.00 | 100 | 1017.7 |
| 20260830214558 | 70 | 238 | 1.0 | 4.0 | 0.00 | 0.00 | 0.00 | 100 | 1017.7 |
| 20260830213052 | 70 | 228 | 1.0 | 3.0 | 0.00 | 0.00 | 0.00 | 100 | 1017.7 |
| 20260830211548 | 70 | 227 | 0.0 | 3.0 | 0.00 | 0.00 | 0.00 | 100 | 1018.0 |
| 20260830210053 | 70 | 226 | 1.0 | 5.0 | 0.00 | 0.00 | 0.00 | 100 | 1017.9 |
| 20260830204541 | 70 | 227 | 2.0 | 5.0 | 0.00 | 0.00 | 0.00 | 100 | 1018.0 |
| 20260830203034 | 70 | 171 | 2.0 | 4.0 | 0.00 | 0.00 | 0.00 | 100 | 1018.3 |
| 20260830201530 | 70 | 228 | 1.0 | 4.0 | 0.00 | 0.00 | 0.00 | 100 | 1018.4 |
| 20260830200025 | 70 | 317 | 0.0 | 1.0 | 0.00 | 0.00 | 0.00 | 100 | 1018.7 |
| 20260830194521 | 70 | 319 | 0.0 | 2.0 | 0.00 | 0.00 | 0.00 | 100 | 1018.9 |
| 20260830193017 | 71 | 335 | 1.0 | 5.0 | 0.00 | 0.00 | 0.00 | 100 | 1019.1 |
| 20260830191513 | 72 | 327 | 2.0 | 5.0 | 0.00 | 0.00 | 0.00 | 11 | 1019.0 |
| 20260830190008 | 73 | 291 | 1.0 | 4.0 | 0.00 | 0.00 | 0.00 | 22 | 1019.1 |
| 20260830184504 | 73 | 292 | 2.0 | 6.0 | 0.00 | 0.00 | 0.00 | 26 | 1019.3 |
| 20260830183115 | 73 | 298 | 2.0 | 8.0 | 0.00 | 0.00 | 0.00 | 18 | 1019.2 |
| 20260830181556 | 72 | 304 | 1.0 | 7.0 | 0.00 | 0.00 | 0.00 | 100 | 1019.4 |
| 20260830180051 | 71 | 343 | 2.0 | 8.0 | 0.00 | 0.00 | 0.00 | 100 | 1019.5 |
| 20260830174553 | 70 | 286 | 3.0 | 5.0 | 0.00 | 0.00 | 0.00 | 100 | 1019.6 |
| 20260830173100 | 69 | 267 | 1.0 | 4.0 | 0.00 | 0.00 | 0.00 | 100 | 1019.7 |
| 20260830171539 | 69 | 261 | 1.0 | 4.0 | 0.00 | 0.00 | 0.00 | 100 | 1019.8 |
| 20260830170033 | 69 | 291 | 1.0 | 4.0 | 0.00 | 0.00 | 0.00 | 100 | 1019.9 |
| 20260830164542 | 68 | 289 | 1.0 | 4.0 | 0.00 | 0.00 | 0.00 | 100 | 1019.9 |
| 20260830163026 | 68 | 289 | 1.0 | 6.0 | 0.00 | 0.00 | 0.00 | 100 | 1019.8 |
| 20260830161522 | 69 | 273 | 1.0 | 4.0 | 0.00 | 0.00 | 0.00 | 100 | 1019.7 |
| 20260830160019 | 69 | 260 | 0.0 | 3.0 | 0.00 | 0.00 | 0.00 | 100 | 1019.6 |
| 20260830154513 | 69 | 260 | 0.0 | 3.0 | 0.00 | 0.00 | 0.00 | 100 | 1019.7 |
| 20260830153013 | 69 | 257 | 0.0 | 3.0 | 0.00 | 0.00 | 0.00 | 100 | 1019.6 |
| 20260830151503 | 69 | 259 | 0.0 | 2.0 | 0.00 | 0.00 | 0.00 | 100 | 1019.7 |
| 20260830150111 | 68 | 259 | 0.0 | 2.0 | 0.00 | 0.00 | 0.00 | 100 | 1019.5 |
| 20260830144553 | 68 | 259 | 0.0 | 0.0 | 0.00 | 0.00 | 0.00 | 100 | 1019.5 |
| 20260830143050 | 68 | 259 | 0.0 | 2.0 | 0.00 | 0.00 | 0.00 | 5 | 1019.6 |
| 20260830141546 | 68 | 259 | 0.0 | 3.0 | 0.00 | 0.00 | 0.00 | 13 | 1019.3 |
| 20260830140040 | 68 | 259 | 0.0 | 3.0 | 0.00 | 0.00 | 0.00 | 19 | 1019.3 |
| 20260830134541 | 68 | 243 | 0.0 | 3.0 | 0.00 | 0.00 | 0.00 | 18 | 1019.0 |
| 20260830133037 | 68 | 257 | 1.0 | 4.0 | 0.00 | 0.00 | 0.00 | 23 | 1018.9 |
| 20260830131539 | 68 | 270 | 3.0 | 7.0 | 0.00 | 0.00 | 0.00 | 27 | 1018.8 |
| 20260830130024 | 68 | 251 | 1.0 | 6.0 | 0.00 | 0.00 | 0.00 | 26 | 1018.7 |
| 20260830124519 | 67 | 267 | 2.0 | 5.0 | 0.00 | 0.00 | 0.00 | 28 | 1018.6 |
| 20260830123015 | 67 | 240 | 2.0 | 5.0 | 0.00 | 0.00 | 0.00 | 29 | 1018.5 |
| 20260830121510 | 66 | 257 | 1.0 | 8.0 | 0.00 | 0.00 | 0.00 | 28 | 1018.5 |
| 20260830120005 | 66 | 269 | 3.0 | 6.0 | 0.00 | 0.00 | 0.00 | 26 | 1018.4 |
| 20260830114503 | 65 | 267 | 2.0 | 5.0 | 0.00 | 0.00 | 0.00 | 25 | 1018.5 |
| 20260830113057 | 65 | 220 | 3.0 | 5.0 | 0.00 | 0.00 | 0.00 | 27 | 1018.5 |
| 20260830111554 | 65 | 236 | 1.0 | 5.0 | 0.00 | 0.00 | 0.00 | 27 | 1018.5 |
| 20260830110049 | 65 | 238 | 2.0 | 5.0 | 0.00 | 0.00 | 0.00 | 28 | 1018.4 |
| 20260830104545 | 65 | 240 | 1.0 | 6.0 | 0.00 | 0.00 | 0.00 | 28 | 1018.5 |
| 20260830103040 | 65 | 241 | 3.0 | 6.0 | 0.00 | 0.00 | 0.00 | 27 | 1018.6 |
| 20260830101536 | 65 | 250 | 1.0 | 4.0 | 0.00 | 0.00 | 0.00 | 27 | 1018.7 |
| 20260830100031 | 65 | 234 | 2.0 | 5.0 | 0.00 | 0.00 | 0.00 | 29 | 1018.7 |
| 20260830094526 | 65 | 257 | 2.0 | 6.0 | 0.00 | 0.00 | 0.00 | 30 | 1018.8 |
| 20260830093022 | 65 | 235 | 1.0 | 6.0 | 0.00 | 0.00 | 0.00 | 30 | 1018.6 |
| 20260830091536 | 65 | 261 | 1.0 | 6.0 | 0.00 | 0.00 | 0.00 | 30 | 1018.7 |
| 20260830090014 | 65 | 222 | 2.0 | 5.0 | 0.00 | 0.00 | 0.00 | 30 | 1018.8 |
| 20260830084509 | 65 | 230 | 2.0 | 5.0 | 0.00 | 0.00 | 0.00 | 31 | 1018.8 |
| 20260830083005 | 65 | 239 | 2.0 | 6.0 | 0.00 | 0.00 | 0.00 | 31 | 1018.7 |
| 20260830081602 | 65 | 240 | 2.0 | 5.0 | 0.00 | 0.00 | 0.00 | 32 | 1018.9 |
| 20260830080059 | 65 | 267 | 1.0 | 4.0 | 0.00 | 0.00 | 0.00 | 31 | 1019.0 |
| 20260830074603 | 65 | 230 | 2.0 | 5.0 | 0.00 | 0.00 | 0.00 | 31 | 1019.2 |
| 20260830073047 | 65 | 233 | 1.0 | 4.0 | 0.00 | 0.00 | 0.00 | 30 | 1019.2 |
| 20260830071543 | 65 | 280 | 1.0 | 5.0 | 0.00 | 0.00 | 0.00 | 31 | 1019.2 |
| 20260830070040 | 65 | 235 | 2.0 | 5.0 | 0.00 | 0.00 | 0.00 | 31 | 1019.3 |
| 20260830064537 | 65 | 257 | 1.0 | 5.0 | 0.00 | 0.00 | 0.00 | 27 | 1019.5 |
| 20260830063030 | 65 | 244 | 1.0 | 5.0 | 0.00 | 0.00 | 0.00 | 23 | 1019.6 |
| 20260830061528 | 65 | 234 | 1.0 | 5.0 | 0.00 | 0.00 | 0.00 | 20 | 1019.5 |
| 20260830060020 | 64 | 243 | 1.0 | 4.0 | 0.00 | 0.00 | 0.00 | 18 | 1019.7 |
| 20260830054521 | 64 | 254 | 0.0 | 5.0 | 0.00 | 0.00 | 0.00 | 16 | 1019.7 |
| 20260830053012 | 64 | 244 | 0.0 | 3.0 | 0.00 | 0.00 | 0.00 | 15 | 1019.7 |
| 20260830051508 | 64 | 245 | 0.0 | 3.0 | 0.00 | 0.00 | 0.00 | 12 | 1019.7 |
| 20260830050002 | 64 | 245 | 1.0 | 5.0 | 0.00 | 0.00 | 0.00 | 6 | 1019.7 |
| 20260830044613 | 64 | 240 | 0.0 | 4.0 | 0.00 | 0.00 | 0.00 | 2 | 1019.6 |
| 20260830043055 | 64 | 251 | 0.0 | 3.0 | 0.00 | 0.00 | 0.00 | 2 | 1019.5 |
| 20260830041613 | 65 | 252 | 0.0 | 2.0 | 0.00 | 0.00 | 0.00 | 6 | 1019.6 |
| 20260830040051 | 65 | 251 | 0.0 | 3.0 | 0.00 | 0.00 | 0.00 | 10 | 1019.4 |